GW2216 Weather Reports


time (UTC)temp
C
wind
direction
speed
KPH
gust
KPH
rain 1hr
cm
rain 24hr
cm
rain mn
cm
humidity
%
barometer
mb
20260503054550 10 271 3.2 6.4 0.00 0.10 0.10 79 1016.1
20260503053038 10 0 1.6 6.4 0.00 0.10 0.10 80 1016.5
20260503051530 10 0 0.0 0.0 0.00 0.10 0.10 80 1016.6
20260503050032 11 0 0.0 3.2 0.00 0.10 0.10 76 1016.7
20260503044532 10 340 3.2 9.7 0.00 0.10 0.10 78 1016.5
20260503043031 10 282 3.2 6.4 0.00 0.10 0.10 79 1016.5
20260503041530 10 0 0.0 4.8 0.00 0.10 0.10 78 1016.4
20260503040037 11 275 8.0 11.3 0.00 0.10 0.10 76 1016.2
20260503034530 11 304 1.6 3.2 0.00 0.10 0.10 76 1016.4
20260503033032 11 0 0.0 4.8 0.00 0.10 0.10 71 1016.4
20260503031536 11 0 0.0 12.9 0.00 0.10 0.10 72 1016.5
20260503030032 11 110 0.0 3.2 0.00 0.10 0.10 74 1016.2
20260503024531 12 38 0.0 17.7 0.00 0.10 0.10 66 1015.6
20260503023031 12 334 6.4 17.7 0.00 0.10 0.10 68 1015.3
20260503021528 11 320 4.8 14.5 0.00 0.10 0.10 71 1015.1
20260503020028 11 302 6.4 16.1 0.00 0.10 0.10 72 1015.0
20260503014531 12 352 4.8 16.1 0.00 0.10 0.10 74 1015.2
20260503013032 12 331 4.8 12.9 0.00 0.10 0.10 72 1015.0
20260503011530 12 321 4.8 9.7 0.10 0.10 0.10 76 1015.2
20260503010035 13 0 0.0 3.2 0.10 0.10 0.10 77 1015.4
20260503004555 12 0 0.0 3.2 0.10 0.10 0.10 79 1015.1
20260503003030 13 152 8.0 41.8 0.10 0.10 0.10 66 1015.2
20260503001530 17 148 1.6 12.9 0.00 0.00 0.00 34 1014.3
20260503000033 18 42 0.0 8.0 0.00 0.00 0.00 34 1013.9
20260502234545 18 83 3.2 14.5 0.00 0.00 0.00 33 1013.9
20260502233029 19 98 9.7 22.5 0.00 0.00 0.00 30 1013.8
20260502231528 20 193 3.2 14.5 0.00 0.00 0.00 29 1013.6
20260502230050 20 266 6.4 14.5 0.00 0.00 0.00 29 1013.8
20260502224532 20 201 3.2 12.9 0.00 0.00 0.00 29 1013.9
20260502223030 20 228 9.7 19.3 0.00 0.00 0.00 28 1014.2
20260502221529 20 159 8.0 16.1 0.00 0.00 0.00 29 1014.4
20260502220029 19 144 6.4 11.3 0.00 0.00 0.00 31 1014.8
20260502214539 18 200 3.2 11.3 0.00 0.00 0.00 33 1015.0
20260502213030 17 211 4.8 45.1 0.00 0.00 0.00 38 1015.2
20260502211535 19 157 25.7 41.8 0.00 0.00 0.00 26 1015.6
20260502210032 20 148 8.0 37.0 0.00 0.00 0.00 30 1015.7
20260502204529 19 188 9.7 16.1 0.00 0.00 0.00 29 1015.5
20260502203030 19 187 4.8 16.1 0.00 0.00 0.00 29 1015.5
20260502201529 19 194 6.4 14.5 0.00 0.00 0.00 30 1015.6
20260502200028 19 191 11.3 22.5 0.00 0.00 0.00 29 1015.7
20260502194529 20 132 9.7 25.7 0.00 0.00 0.00 28 1015.8
20260502193032 20 242 9.7 24.1 0.00 0.00 0.00 28 1015.7
20260502191533 21 160 12.9 22.5 0.00 0.00 0.00 27 1015.9
20260502190032 21 200 6.4 25.7 0.00 0.00 0.00 27 1015.9
20260502184528 21 155 8.0 24.1 0.00 0.00 0.00 26 1016.0
20260502183037 20 200 9.7 17.7 0.00 0.00 0.00 27 1016.1
20260502181538 18 117 1.6 8.0 0.00 0.00 0.00 33 1016.3
20260502163035 16 352 3.2 9.7 0.00 0.00 0.00 37 1016.5
20260502161529 15 327 4.8 9.7 0.00 0.00 0.00 39 1016.4
20260502151531 13 50 0.0 3.2 0.00 0.00 0.00 41 1016.5
20260502123036 9 265 1.6 9.7 0.00 0.00 0.00 40 1015.6
20260502121540 8 211 6.4 9.7 0.00 0.00 0.00 42 1015.6
20260502114531 8 220 8.0 11.3 0.00 0.00 0.00 41 1015.5
20260502113028 10 236 6.4 11.3 0.00 0.00 0.00 38 1015.6
20260502111532 10 0 3.2 11.3 0.00 0.00 0.00 38 1015.7
20260502110035 9 241 4.8 9.7 0.00 0.00 0.00 38 1015.6
20260502104529 9 242 4.8 8.0 0.00 0.00 0.00 37 1015.6
20260502103029 8 232 3.2 6.4 0.00 0.00 0.00 37 1015.6
20260502101529 10 242 3.2 6.4 0.00 0.00 0.00 34 1015.5
20260502091530 10 252 4.8 11.3 0.00 0.00 0.00 29 1015.8
20260502071529 12 221 8.0 12.9 0.00 0.00 0.00 28 1016.8